EW1175 Weather Reports


time (UTC)temp
F
wind
direction
speed
knots
gust
knots
rain 1hr
in
rain 24hr
in
rain mn
in
humidity
%
barometer
mb
20260504081559 62 176 0.0 0.9 0.00 0.00 0.00 58 1011.2
20260504044540 66 117 0.0 0.0 0.00 0.00 0.00 52 1011.1
20260504043043 67 117 0.0 0.0 0.00 0.00 0.00 50 1011.1
20260504041543 68 117 0.0 0.0 0.00 0.00 0.00 46 1011.1
20260504040041 69 115 0.0 0.0 0.00 0.00 0.00 43 1011.1
20260504034545 71 115 0.0 0.0 0.00 0.00 0.00 39 1010.9
20260504033037 72 115 0.0 0.0 0.00 0.00 0.00 41 1010.8
20260504031540 73 115 0.0 0.0 0.00 0.00 0.00 40 1010.8
20260504030036 75 115 0.0 0.0 0.00 0.00 0.00 37 1011.0
20260504024537 76 115 0.0 0.9 0.00 0.00 0.00 27 1011.0
20260504023032 77 122 0.0 0.0 0.00 0.00 0.00 27 1011.0
20260504021532 77 119 0.0 0.9 0.00 0.00 0.00 28 1011.1
20260504020036 77 120 0.0 0.9 0.00 0.00 0.00 30 1011.2
20260504014530 78 122 0.0 0.9 0.00 0.00 0.00 29 1011.3
20260504013031 78 120 0.0 0.9 0.00 0.00 0.00 29 1011.5
20260504011525 79 129 0.0 0.9 0.00 0.00 0.00 29 1011.7
20260504010021 79 122 0.0 0.9 0.00 0.00 0.00 32 1011.8
20260504004522 79 134 0.0 0.9 0.00 0.00 0.00 32 1012.0
20260504003017 79 115 0.0 2.6 0.00 0.00 0.00 30 1012.2
20260504001524 79 100 0.0 1.7 0.00 0.00 0.00 30 1012.3
20260504000014 80 94 0.0 2.6 0.00 0.00 0.00 30 1012.5
20260503234515 79 121 0.0 1.7 0.00 0.00 0.00 29 1012.6
20260503233017 80 120 0.0 0.9 0.00 0.00 0.00 32 1012.8
20260503231508 80 122 0.0 1.7 0.00 0.00 0.00 31 1013.0
20260503230015 80 127 0.0 0.9 0.00 0.00 0.00 32 1013.2
20260503224503 81 110 0.0 1.7 0.00 0.00 0.00 32 1013.3
20260503223002 82 117 0.0 1.7 0.00 0.00 0.00 31 1013.5
20260503221609 82 130 0.0 1.7 0.00 0.00 0.00 33 1013.7
20260503220056 82 124 0.0 0.9 0.00 0.00 0.00 34 1013.9
20260503214553 81 119 0.0 2.6 0.00 0.00 0.00 34 1014.1
20260503213051 81 119 0.0 2.6 0.00 0.00 0.00 35 1014.3
20260503211550 81 120 0.0 1.7 0.00 0.00 0.00 37 1014.4
20260503210047 80 123 0.0 2.6 0.00 0.00 0.00 36 1014.5
20260503204601 80 134 0.9 3.5 0.00 0.00 0.00 34 1014.8
20260503203045 81 115 0.0 1.7 0.00 0.00 0.00 41 1014.9
20260503201541 79 110 0.0 2.6 0.00 0.00 0.00 44 1015.1
20260503200038 79 147 0.0 1.7 0.00 0.00 0.00 42 1015.3
20260503194541 80 127 0.0 1.7 0.00 0.00 0.00 41 1015.5
20260503193043 77 84 0.0 0.9 0.00 0.00 0.00 44 1015.7
20260503191559 74 128 0.0 1.7 0.00 0.00 0.00 46 1015.9
20260503190032 73 130 0.0 0.9 0.00 0.00 0.00 48 1016.0
20260503184525 73 96 0.9 1.7 0.00 0.00 0.00 50 1016.1
20260503183024 73 115 0.0 1.7 0.00 0.00 0.00 47 1016.2
20260503181529 73 118 0.0 1.7 0.00 0.00 0.00 45 1016.3
20260503180027 73 131 0.0 0.0 0.00 0.00 0.00 44 1016.4
20260503174521 72 127 0.0 0.0 0.00 0.00 0.00 45 1016.5
20260503173022 73 140 0.0 0.0 0.00 0.00 0.00 40 1016.6
20260503171519 74 120 0.0 0.0 0.00 0.00 0.00 44 1016.7